Measurements were made at the meteorological tower in Juelich (50.90 N / 6.40 E) at an altitude of 100 m,
"Instrument: Fast Greenhouse Gas Analyzer (FGGA), Los Gatos Inc.",
Responsible PI: Dr. Marc von Hobe; Forschungszentrum Juelich GmbH; IEK-7; email: m.von.hobe@fz-juelich.de,
NaN or negative numbers are fill values (i.e. no valid measurements were made at that time),
Uncertainties are given as the 1-sigma standard deviation over each 10 minute intervals. In each interval ~600 individual measurements are carried out so that the standard error of the mean is approximately sigma/sqrt(600).,
time_utc,CO2_ppm,stdev_CO2_ppm,CH4_ppm,stdev_CH4_ppm,H2O_ppm,stdev_H2O_ppm
"2014-10-01 00:05:00 000",408.776,4.01235,2.00494,0.0178557,12377.9,62.3193
"2014-10-01 00:15:00 000",408.235,3.85436,1.99780,0.0205399,12448.4,68.7113
"2014-10-01 00:25:00 000",408.784,1.06010,1.99699,0.00511352,12526.3,69.4943
"2014-10-01 00:35:00 000",410.984,1.24330,2.02554,0.00874934,12685.4,87.9229
"2014-10-01 00:45:00 000",412.864,1.66019,2.03263,0.00429656,12640.7,62.6528
"2014-10-01 00:55:00 000",413.267,1.49286,2.03024,0.00582703,12727.0,107.742
"2014-10-01 01:05:00 000",412.207,1.04766,2.01929,0.00369121,12806.8,75.4810
"2014-10-01 01:15:00 000",413.375,1.06843,2.02169,0.00421654,12767.9,70.0887
"2014-10-01 01:25:00 000",410.315,2.17594,2.00816,0.00957323,12813.8,78.2721
"2014-10-01 01:35:00 000",413.219,1.22540,2.01956,0.00510968,12691.7,66.2563
"2014-10-01 01:45:00 000",412.783,1.32677,2.01666,0.00553726,12664.5,55.6610
"2014-10-01 01:55:00 000",410.475,0.979825,2.00503,0.00370771,12729.2,56.5507
"2014-10-01 02:05:00 000",412.909,1.32415,2.01052,0.00498362,12669.4,62.3931
"2014-10-01 02:15:00 000",413.990,1.29749,2.01497,0.00536831,12640.9,63.6352
"2014-10-01 02:25:00 000",414.692,1.15931,2.02030,0.00333438,12678.5,93.7613
"2014-10-01 02:35:00 000",414.851,0.903784,2.02317,0.00296166,12787.3,57.0660
"2014-10-01 02:45:00 000",415.910,0.958054,2.02187,0.00320781,12735.8,57.2106
"2014-10-01 02:55:00 000",416.527,0.945252,2.02291,0.00385940,12736.4,58.6809
"2014-10-01 03:05:00 000",415.157,1.33395,2.01882,0.00548032,12788.9,73.6481
"2014-10-01 03:15:00 000",416.018,1.51611,2.02214,0.00602526,12801.6,75.2416
"2014-10-01 03:25:00 000",415.172,1.87888,2.01875,0.00818990,12857.9,78.2193
"2014-10-01 03:35:00 000",412.839,2.16671,2.00827,0.00879624,12915.0,86.3708
"2014-10-01 03:45:00 000",409.498,1.70390,1.99619,0.00657295,12982.9,73.1081
"2014-10-01 03:55:00 000",408.987,1.06707,1.99367,0.00465589,13005.0,71.0797
"2014-10-01 04:05:00 000",409.674,1.09382,1.99259,0.00400357,12958.9,74.0770
"2014-10-01 04:15:00 000",408.724,0.775851,1.99228,0.00336073,12966.5,72.6194
"2014-10-01 04:25:00 000",409.027,0.695551,1.99982,0.00514218,12997.6,71.1142
"2014-10-01 04:35:00 000",410.651,1.09210,2.00799,0.00497936,12978.2,79.4223
"2014-10-01 04:45:00 000",412.500,0.848447,2.01853,0.00366068,12870.5,84.1805
"2014-10-01 04:55:00 000",412.396,1.27090,2.01824,0.00524259,12834.2,94.9961
"2014-10-01 05:05:00 000",412.446,1.39530,2.01536,0.00696710,12767.7,107.802
"2014-10-01 05:15:00 000",411.352,1.10871,2.00800,0.00597278,12792.1,114.955
"2014-10-01 05:25:00 000",409.074,0.848136,1.99168,0.00603943,12923.5,125.736
"2014-10-01 05:35:00 000",406.633,0.994858,1.98161,0.00504669,13104.3,131.998
"2014-10-01 05:45:00 000",406.304,1.55009,1.97734,0.00627512,13146.3,185.217
"2014-10-01 05:55:00 000",402.686,1.37962,1.96964,0.00489487,13553.8,181.457
"2014-10-01 06:05:00 000",402.010,0.995488,1.96451,0.00521833,13696.5,160.236
"2014-10-01 06:15:00 000",402.831,0.935633,1.96874,0.00511275,13670.0,166.385
"2014-10-01 06:25:00 000",404.406,0.988690,1.97288,0.00520724,13646.0,169.509
"2014-10-01 06:35:00 000",403.402,0.873609,1.97030,0.00517611,13670.3,170.000
"2014-10-01 06:45:00 000",405.283,1.09132,1.97362,0.00552461,13656.1,152.815
"2014-10-01 06:55:00 000",404.224,1.79174,1.96581,0.00750165,13566.9,183.429
"2014-10-01 07:05:00 000",405.493,1.96495,1.97170,0.00831215,13190.2,344.606
"2014-10-01 07:15:00 000",406.618,2.33295,1.97457,0.00940980,12528.1,175.921
"2014-10-01 07:25:00 000",407.412,1.38031,1.97777,0.00646215,12782.6,154.316
"2014-10-01 07:35:00 000",404.620,2.49358,1.96855,0.00876245,13204.8,233.628
"2014-10-01 07:45:00 000",404.957,2.29335,1.97318,0.00926930,13254.1,308.502
"2014-10-01 07:55:00 000",406.199,3.39289,1.97612,0.0134434,13534.6,237.287
"2014-10-01 08:05:00 000",405.628,1.88177,1.97302,0.0101501,13543.0,111.870
"2014-10-01 08:15:00 000",405.747,1.18928,1.97718,0.00648623,13458.0,170.592
"2014-10-01 08:25:00 000",405.738,1.37228,1.98675,0.00582975,13285.2,276.321
"2014-10-01 08:35:00 000",404.135,1.08938,1.98574,0.00683842,12854.7,206.718
"2014-10-01 08:45:00 000",402.838,1.13786,1.98213,0.00741594,12759.0,73.3115
"2014-10-01 08:55:00 000",401.230,1.85036,2.00524,0.00960363,12860.6,138.810
"2014-10-01 09:05:00 000",400.454,1.92865,1.98846,0.0155034,12655.1,223.163
"2014-10-01 09:15:00 000",399.341,0.960835,2.00689,0.0262594,12622.1,162.961
"2014-10-01 09:25:00 000",399.469,0.777970,1.99242,0.0174610,12517.3,83.0388
"2014-10-01 09:35:00 000",399.213,0.872563,2.01053,0.0192721,12543.0,106.179
"2014-10-01 09:45:00 000",398.417,0.816009,1.99255,0.0169215,12708.4,93.9982
"2014-10-01 09:55:00 000",398.091,0.822803,1.97685,0.00936997,12629.5,143.835
"2014-10-01 10:05:00 000",396.134,0.823042,1.96146,0.0112597,12349.9,191.904
"2014-10-01 10:15:00 000",394.209,0.867521,1.95413,0.00703108,12218.8,83.4513
"2014-10-01 10:25:00 000",392.804,0.738242,1.94225,0.00278917,12196.6,94.1768
"2014-10-01 10:35:00 000",391.946,0.670693,1.94061,0.00277718,12317.3,82.5819
"2014-10-01 10:45:00 000",391.717,0.802402,1.94485,0.00572592,12508.6,87.1910
"2014-10-01 10:55:00 000",392.034,0.734364,1.94550,0.00365537,12370.0,126.109
"2014-10-01 11:05:00 000",391.846,0.726675,1.94605,0.00340805,12134.6,189.639
"2014-10-01 11:15:00 000",392.230,1.53569,1.95200,0.00879328,12262.7,176.965
"2014-10-01 11:25:00 000",391.580,0.691182,1.95178,0.00652994,12325.9,117.128
"2014-10-01 11:35:00 000",391.285,0.807041,1.97013,0.0127612,12281.7,133.351
"2014-10-01 11:45:00 000",390.943,0.999715,1.96055,0.0149550,12096.8,102.942
"2014-10-01 11:55:00 000",390.725,1.33672,1.95171,0.00884432,12186.2,111.248
"2014-10-01 12:05:00 000",390.654,1.74634,1.94603,0.00689713,12293.4,97.1771
"2014-10-01 12:15:00 000",391.059,1.47685,1.95562,0.0159762,12172.6,141.321
"2014-10-01 12:25:00 000",391.780,1.56351,1.94876,0.00951075,12323.5,214.026
"2014-10-01 12:35:00 000",393.037,2.46031,1.94412,0.0101681,12101.2,198.284
"2014-10-01 12:45:00 000",391.287,0.840822,1.98093,0.0249765,12153.0,112.176
"2014-10-01 12:55:00 000",391.580,0.800270,1.96024,0.0185715,12079.7,127.939
"2014-10-01 13:05:00 000",392.748,1.23643,1.98632,0.0280173,12038.2,117.465
"2014-10-01 13:15:00 000",394.641,1.17143,1.96356,0.0209555,11935.8,85.3616
"2014-10-01 13:25:00 000",395.255,3.10422,1.96261,0.0141609,12059.3,142.034
"2014-10-01 13:35:00 000",393.588,0.974033,1.95068,0.00935411,11942.4,160.364
"2014-10-01 13:45:00 000",394.230,1.04032,1.95713,0.00655078,12260.0,195.700
"2014-10-01 13:55:00 000",393.539,0.889250,1.95210,0.00299412,12536.6,61.9337
"2014-10-01 14:05:00 000",393.262,0.808729,1.94902,0.00338382,12560.8,219.034
"2014-10-01 14:15:00 000",392.936,0.965844,1.94900,0.00625000,12367.2,96.2060
"2014-10-01 14:25:00 000",393.272,1.14798,1.94897,0.00837099,12270.3,131.548
"2014-10-01 14:35:00 000",392.216,0.942219,1.94916,0.0148214,11893.6,141.551
"2014-10-01 14:45:00 000",392.514,2.20391,1.95142,0.0148493,11919.2,92.2803
"2014-10-01 14:55:00 000",391.761,1.03987,1.95727,0.0137109,11949.1,148.098
"2014-10-01 15:05:00 000",391.221,0.720495,1.95300,0.0108358,11978.9,84.8536
"2014-10-01 15:15:00 000",390.792,0.960538,1.94333,0.0109584,12068.6,56.4470
"2014-10-01 15:25:00 000",390.155,0.579265,1.93282,0.00322618,11891.0,89.8564
"2014-10-01 15:35:00 000",390.683,1.59315,1.93572,0.00951801,11949.6,62.9216
"2014-10-01 15:45:00 000",392.188,2.67576,1.93599,0.00749280,11953.2,75.0034
"2014-10-01 15:55:00 000",389.896,0.616144,1.98725,0.0400750,11900.8,56.6420
"2014-10-01 16:05:00 000",391.617,2.32359,1.96353,0.0305358,11971.2,60.9291
"2014-10-01 16:15:00 000",390.549,0.637783,1.97752,0.0468261,11978.0,64.7812
"2014-10-01 16:25:00 000",390.652,0.640327,1.94458,0.0119370,12085.5,61.5461
"2014-10-01 16:35:00 000",391.441,0.643290,1.93968,0.00371240,12067.8,62.0053
"2014-10-01 16:45:00 000",391.794,0.650663,1.93703,0.00280162,12138.3,56.0298
"2014-10-01 16:55:00 000",392.625,0.640446,1.93542,0.00287985,11977.3,64.8658
"2014-10-01 17:05:00 000",393.802,0.813818,2.03946,0.0987400,12008.4,63.8192
"2014-10-01 17:15:00 000",392.419,0.785219,1.94127,0.0304689,11858.4,91.4559
"2014-10-01 17:25:00 000",391.966,0.633609,1.93001,0.00329432,11747.5,59.1650
"2014-10-01 17:35:00 000",391.917,0.689581,1.92820,0.00393694,11652.2,61.4208
"2014-10-01 17:45:00 000",392.622,1.25897,1.99425,0.111101,11659.3,88.6414
"2014-10-01 17:55:00 000",395.664,1.43837,2.03202,0.0578196,11752.9,53.4772
"2014-10-01 18:05:00 000",395.123,1.15777,2.03588,0.0703686,11756.2,54.9936
"2014-10-01 18:15:00 000",395.888,1.42586,2.00259,0.0433784,11760.7,59.0278
"2014-10-01 18:25:00 000",397.601,1.29006,2.02523,0.0384645,11801.8,56.9519
"2014-10-01 18:35:00 000",396.799,2.17888,1.97692,0.0188369,11820.0,54.8563
"2014-10-01 18:45:00 000",393.100,1.18919,1.95114,0.00506603,11813.0,55.0877
"2014-10-01 18:55:00 000",394.368,2.24363,1.95914,0.00874703,11837.1,50.9712
"2014-10-01 19:05:00 000",397.089,1.04449,1.98803,0.0426423,11808.7,55.8023
"2014-10-01 19:15:00 000",398.101,1.31351,2.02569,0.0726470,11849.4,55.0622
"2014-10-01 19:25:00 000",398.187,1.77528,1.96724,0.0236141,11905.1,54.8616
"2014-10-01 19:35:00 000",396.499,0.945181,1.95648,0.00528969,11938.8,51.9292
"2014-10-01 19:45:00 000",398.311,0.862959,1.96910,0.00383736,12019.3,67.5275
"2014-10-01 19:55:00 000",397.316,0.698022,1.97370,0.00398775,12116.2,64.0882
"2014-10-01 20:05:00 000",398.654,1.04632,1.98100,0.00597911,12152.1,70.3615
"2014-10-01 20:15:00 000",399.952,0.926779,1.98463,0.00724315,12092.0,57.6006
"2014-10-01 20:25:00 000",400.561,1.04130,1.99765,0.00868772,12255.1,71.0315
"2014-10-01 20:35:00 000",398.935,1.15235,1.99253,0.00712937,12318.3,57.0973
"2014-10-01 20:45:00 000",396.827,1.97759,1.98441,0.0114454,12294.9,53.5518
"2014-10-01 20:55:00 000",391.880,1.94447,1.95388,0.0122631,12197.2,64.3920
"2014-10-01 21:05:00 000",389.831,1.25007,1.94331,0.00753287,12098.7,58.0662
"2014-10-01 21:15:00 000",392.205,2.10409,1.95906,0.0119279,12087.6,57.9265
"2014-10-01 21:25:00 000",391.283,2.97484,1.95213,0.0177566,12028.8,65.1794
"2014-10-01 21:35:00 000",391.818,2.18825,1.95581,0.0134425,12093.9,51.5726
"2014-10-01 21:45:00 000",390.530,1.99871,1.94465,0.0115188,12019.5,56.7233
"2014-10-01 21:55:00 000",393.252,1.65372,1.96003,0.00766479,12131.0,77.3978
"2014-10-01 22:05:00 000",396.028,0.989785,1.97048,0.00371534,12297.4,87.1691
"2014-10-01 22:15:00 000",394.086,0.853793,1.96017,0.00488211,12353.4,60.9232
"2014-10-01 22:25:00 000",394.747,2.97023,1.95704,0.0111397,12255.3,84.2311
"2014-10-01 22:35:00 000",396.560,4.99893,1.95847,0.0188237,12212.8,87.8650
"2014-10-01 22:45:00 000",391.996,1.16534,1.93676,0.00775487,12234.0,99.9856
"2014-10-01 22:55:00 000",393.158,1.69238,1.93673,0.00507187,12081.8,61.7882
"2014-10-01 23:05:00 000",395.618,1.83592,1.94453,0.00523059,12022.6,58.1254
"2014-10-01 23:15:00 000",395.617,2.09477,1.94852,0.00631808,12091.6,107.381
"2014-10-01 23:25:00 000",391.074,1.10203,1.93454,0.00494341,12259.3,60.9377
"2014-10-01 23:35:00 000",392.756,1.80601,1.93954,0.00663139,12210.7,55.9801
"2014-10-01 23:45:00 000",396.450,1.92644,1.94946,0.00601288,12211.5,75.1216
"2014-10-01 23:55:00 000",401.266,1.98594,1.96467,0.00590312,12070.1,74.0667
"2014-10-02 00:05:00 000",398.339,1.40615,1.96028,0.00385708,12287.4,76.2349
"2014-10-02 00:15:00 000",398.820,2.00675,1.96001,0.00487512,12267.0,85.5216
"2014-10-02 00:25:00 000",400.739,1.38936,1.96179,0.00375345,12149.7,88.2134
"2014-10-02 00:35:00 000",401.746,0.723655,1.95805,0.00341627,12057.1,60.9721
"2014-10-02 00:45:00 000",401.235,0.755527,1.95895,0.00337313,12131.0,75.2602
"2014-10-02 00:55:00 000",401.241,1.14657,1.96284,0.00414836,12195.7,78.6279
"2014-10-02 01:05:00 000",400.504,1.01575,1.94977,0.00480357,12107.6,77.4926
"2014-10-02 01:15:00 000",399.540,0.656823,1.94597,0.00342625,12166.7,80.3502
"2014-10-02 01:25:00 000",399.031,0.730530,1.94440,0.00351544,12062.0,66.7838
"2014-10-02 01:35:00 000",399.363,0.913968,1.94714,0.00453889,12067.6,64.1857
"2014-10-02 01:45:00 000",399.613,0.852770,1.94892,0.00406476,12127.7,70.5864
"2014-10-02 01:55:00 000",398.807,0.744792,1.94880,0.00350486,12188.8,66.4259
"2014-10-02 02:05:00 000",399.939,0.737846,1.94844,0.00309646,12123.7,104.713
"2014-10-02 02:15:00 000",398.810,0.841406,1.94344,0.00359807,12194.6,79.1454
"2014-10-02 02:25:00 000",397.660,0.763347,1.93770,0.00347748,12246.6,67.9314
"2014-10-02 02:35:00 000",397.033,0.806840,1.93618,0.00322760,12278.5,74.5829
"2014-10-02 02:45:00 000",395.919,1.04319,1.93528,0.00370301,12312.9,65.9531
"2014-10-02 02:55:00 000",394.921,0.804846,1.93456,0.00324358,12275.8,69.7959
"2014-10-02 03:05:00 000",395.107,0.975504,1.93641,0.00369338,12225.7,64.8590
"2014-10-02 03:15:00 000",395.488,0.784172,1.93793,0.00321073,12116.7,69.3556
"2014-10-02 03:25:00 000",395.714,1.06157,1.93805,0.00352339,12149.6,54.7845
"2014-10-02 03:35:00 000",396.644,1.15845,1.94055,0.00416282,12055.3,92.0715
"2014-10-02 03:45:00 000",398.840,1.53930,1.95097,0.00901839,11900.9,68.6116
"2014-10-02 03:55:00 000",397.931,0.865683,1.94540,0.00434302,11960.1,72.1626
"2014-10-02 04:05:00 000",406.017,10.1343,1.98355,0.0386393,11687.3,227.323
"2014-10-02 04:15:00 000",403.888,1.94773,1.97569,0.0154542,11685.3,69.7778
"2014-10-02 04:25:00 000",403.746,0.973107,1.95847,0.00617919,11877.5,111.913
"2014-10-02 04:35:00 000",404.812,0.820465,1.97359,0.0128877,12019.2,53.3140
"2014-10-02 04:45:00 000",404.225,1.02873,1.98861,0.00556888,12073.2,60.9881
"2014-10-02 04:55:00 000",405.782,1.03167,1.99592,0.00410483,12094.9,58.4506
"2014-10-02 05:05:00 000",405.394,0.872280,1.99706,0.00328253,12141.0,61.0028
"2014-10-02 05:15:00 000",404.260,1.32497,1.99265,0.00615615,12309.3,63.8392
"2014-10-02 05:25:00 000",406.515,1.54786,2.00153,0.00868437,12230.5,82.0919
"2014-10-02 05:35:00 000",407.540,0.885429,2.01094,0.00421684,12119.0,55.4990
"2014-10-02 05:45:00 000",405.215,1.82068,1.99548,0.00840839,12251.2,93.6921
"2014-10-02 05:55:00 000",404.205,1.10129,1.98850,0.00517905,12419.7,71.3824
"2014-10-02 06:05:00 000",403.070,1.08659,1.98245,0.00437330,12588.6,110.248
"2014-10-02 06:15:00 000",402.382,1.34806,1.97717,0.00601256,12751.2,95.7614
"2014-10-02 06:25:00 000",403.320,1.96867,1.97244,0.00679253,13027.7,223.179
"2014-10-02 06:35:00 000",406.213,0.802590,1.97993,0.00604037,12746.3,262.066
"2014-10-02 06:45:00 000",404.909,1.48827,1.97180,0.00596575,12413.7,121.260
"2014-10-02 06:55:00 000",404.285,1.38966,1.96636,0.00617360,12175.1,167.586
"2014-10-02 07:05:00 000",406.717,0.894378,1.97826,0.00550005,12181.7,163.692
"2014-10-02 07:15:00 000",406.868,1.26372,1.97374,0.00598324,12272.7,119.447
"2014-10-02 07:25:00 000",407.801,5.03847,1.97466,0.0201109,12259.4,65.4558
"2014-10-02 07:35:00 000",407.364,0.808379,1.97353,0.00323623,12459.2,107.450
"2014-10-02 07:45:00 000",405.817,2.07507,1.97106,0.00433058,12917.6,147.141
"2014-10-02 07:55:00 000",405.347,1.27319,1.96812,0.00388034,13174.0,147.377
"2014-10-02 08:05:00 000",405.913,3.05731,1.97255,0.00699298,12490.7,290.718
"2014-10-02 08:15:00 000",418.236,13.4737,2.01206,0.0345779,11844.5,249.190
"2014-10-02 08:25:00 000",427.122,6.43541,2.03997,0.0184744,12939.5,586.859
"2014-10-02 08:35:00 000",420.168,6.74741,2.03028,0.0136536,13391.9,502.120
"2014-10-02 08:45:00 000",420.339,1.90813,2.03825,0.00625262,12871.1,417.495
"2014-10-02 08:55:00 000",419.293,3.18956,2.05294,0.0178987,12636.9,263.943
"2014-10-02 09:05:00 000",416.504,2.90383,2.05534,0.0240379,12457.5,85.4558
"2014-10-02 09:15:00 000",418.410,2.00433,2.04646,0.0123514,12712.9,154.279
"2014-10-02 09:25:00 000",423.145,3.95986,2.06441,0.0132225,12636.4,174.774
"2014-10-02 09:35:00 000",429.711,4.23988,2.14956,0.0452065,12718.2,119.964
"2014-10-02 09:45:00 000",428.362,0.828853,2.21894,0.0255630,13029.8,110.793
"2014-10-02 09:55:00 000",428.291,1.33004,2.18091,0.0411787,13954.8,345.455
"2014-10-02 10:05:00 000",427.682,2.10484,2.08828,0.0162211,13654.6,173.957
"2014-10-02 10:15:00 000",426.607,3.82798,2.07449,0.0138215,13916.8,129.786
"2014-10-02 10:25:00 000",427.634,1.40720,2.08715,0.0116134,13703.6,193.041
"2014-10-02 10:35:00 000",426.503,1.10778,2.07465,0.00897718,13506.4,156.789
"2014-10-02 10:45:00 000",424.130,1.27965,2.07951,0.00990729,13617.7,117.170
"2014-10-02 10:55:00 000",422.744,0.766405,2.07776,0.00631355,13669.0,177.140
"2014-10-02 11:05:00 000",422.741,1.41465,2.06671,0.00525279,13516.0,113.846
"2014-10-02 11:15:00 000",421.932,1.26801,2.06550,0.00744981,13496.8,120.863
"2014-10-02 11:25:00 000",419.193,2.16771,2.06665,0.00894774,13484.7,137.183
"2014-10-02 11:35:00 000",419.842,1.80285,2.06767,0.00710842,13411.4,109.461
"2014-10-02 11:45:00 000",414.369,1.39802,2.04682,0.00644940,13444.6,133.675
"2014-10-02 11:55:00 000",413.440,1.53710,2.04502,0.00747824,13530.0,225.342
"2014-10-02 12:05:00 000",412.077,1.51118,2.03524,0.0117952,13474.2,128.731
"2014-10-02 12:15:00 000",410.635,1.27884,2.00863,0.00901057,13550.5,107.969
"2014-10-02 12:25:00 000",408.906,1.18601,1.99721,0.00934079,13565.4,84.3282
"2014-10-02 12:35:00 000",407.486,1.18461,1.98844,0.00564625,13608.7,79.9462
"2014-10-02 12:45:00 000",404.806,0.992482,1.98675,0.00378045,13492.7,90.6606
"2014-10-02 12:55:00 000",404.940,0.992221,1.98517,0.00356808,13525.0,88.6673
"2014-10-02 13:05:00 000",405.516,1.25378,1.98608,0.00457220,13509.6,110.429
"2014-10-02 13:15:00 000",402.485,0.954207,1.98670,0.00370547,13473.6,79.0430
"2014-10-02 13:25:00 000",401.234,0.803874,1.98135,0.00426923,13456.9,158.345
"2014-10-02 13:35:00 000",401.952,0.991516,1.98599,0.00471615,13177.7,97.9567
"2014-10-02 13:45:00 000",402.221,1.27884,1.98899,0.00734026,13359.8,118.699
"2014-10-02 13:55:00 000",402.554,0.978645,1.98904,0.00436372,13383.5,72.2578
"2014-10-02 14:05:00 000",401.931,0.725838,1.98738,0.00327018,13374.8,73.5731
"2014-10-02 14:15:00 000",401.795,0.710285,1.98736,0.00338675,13497.0,63.9791
"2014-10-02 14:25:00 000",402.129,0.867303,1.99105,0.00311621,13577.9,68.6555
"2014-10-02 14:35:00 000",402.921,0.732332,1.99338,0.00300147,13654.2,74.4526
"2014-10-02 14:45:00 000",402.270,0.797711,1.99214,0.00318799,13623.8,109.556
"2014-10-02 14:55:00 000",402.544,0.829762,1.99483,0.00346244,13612.9,123.638
"2014-10-02 15:05:00 000",402.689,0.734778,1.99704,0.00373950,13364.3,84.3003
"2014-10-02 15:15:00 000",402.493,0.651348,2.00101,0.00446643,13310.0,64.3994
"2014-10-02 15:25:00 000",402.371,0.792363,1.99707,0.00361849,13231.7,146.927
"2014-10-02 15:35:00 000",403.530,0.758923,1.99390,0.00361683,13082.4,85.6043
"2014-10-02 15:45:00 000",403.953,0.708209,1.98912,0.00405545,13058.0,73.3652
"2014-10-02 15:55:00 000",403.727,0.767985,1.98847,0.00467410,12968.0,72.6549
"2014-10-02 16:05:00 000",402.452,0.900748,1.98380,0.00672077,12927.9,98.9026
"2014-10-02 16:15:00 000",402.437,0.613813,1.98729,0.00314544,12977.0,79.6309
"2014-10-02 16:25:00 000",401.696,0.704854,1.98288,0.00307549,12920.2,100.307
"2014-10-02 16:35:00 000",401.041,0.967717,1.97997,0.00363275,12819.9,91.0192
"2014-10-02 16:45:00 000",401.456,0.716646,1.98321,0.00373679,12805.2,104.530
"2014-10-02 16:55:00 000",400.362,1.24376,1.97790,0.00460792,12908.4,113.324
"2014-10-02 17:05:00 000",399.570,1.09100,1.97616,0.00398967,13045.6,70.9047
"2014-10-02 17:15:00 000",398.868,1.41034,1.98276,0.00494476,13211.6,157.164
"2014-10-02 17:25:00 000",397.961,0.977090,1.96793,0.00513009,13471.2,72.7601
"2014-10-02 17:35:00 000",399.439,0.745938,1.96770,0.00288984,13278.4,79.6911
"2014-10-02 17:45:00 000",400.382,0.835785,1.96990,0.00316119,13209.9,60.3669
"2014-10-02 17:55:00 000",400.312,1.47054,1.96938,0.00402625,13270.1,90.5131
"2014-10-02 18:05:00 000",397.929,0.587104,1.96483,0.00279206,13447.1,56.9362
"2014-10-02 18:15:00 000",400.104,1.72548,1.96954,0.00467270,13452.9,63.1573
"2014-10-02 18:25:00 000",404.495,1.22024,1.97965,0.00543306,13407.0,71.9125
"2014-10-02 18:35:00 000",406.579,1.07341,1.98870,0.00342910,13599.0,81.5680
"2014-10-02 18:45:00 000",407.913,0.706822,1.99395,0.00629874,13667.8,142.647
"2014-10-02 18:55:00 000",406.876,1.13742,2.00145,0.00432657,14004.1,84.2213
"2014-10-02 19:05:00 000",407.578,1.62033,2.00370,0.00633178,13975.2,64.8053
"2014-10-02 19:15:00 000",410.985,0.761041,2.01207,0.00329828,13949.3,83.4581
"2014-10-02 19:25:00 000",413.081,0.907225,2.01015,0.00423149,13904.1,96.7562
"2014-10-02 19:35:00 000",415.364,0.777191,2.01169,0.00396997,13815.9,69.1701
"2014-10-02 19:45:00 000",414.911,0.697448,2.00828,0.00330023,13695.0,57.0173
"2014-10-02 19:55:00 000",414.992,0.696305,2.01068,0.00329446,13680.9,55.7214
"2014-10-02 20:05:00 000",415.370,0.674353,2.01103,0.00321358,13740.3,56.7069
"2014-10-02 20:15:00 000",415.812,1.37766,2.01157,0.00405994,13679.4,63.2420
"2014-10-02 20:25:00 000",414.546,1.15512,2.00538,0.00466860,13695.8,64.2967
"2014-10-02 20:35:00 000",415.210,1.14015,2.00600,0.00386411,13527.0,70.6830
"2014-10-02 20:45:00 000",415.687,0.904676,2.00619,0.00373219,13489.7,61.0159
"2014-10-02 20:55:00 000",417.899,1.08632,2.01947,0.00949402,13447.9,52.5347
"2014-10-02 21:05:00 000",418.711,0.913399,2.03965,0.0131828,13517.4,72.3243
"2014-10-02 21:15:00 000",418.606,0.799374,2.04324,0.00882511,13616.8,59.5703
"2014-10-02 21:25:00 000",417.757,1.07256,2.04600,0.00535832,13689.7,62.3086
"2014-10-02 21:35:00 000",416.894,0.799236,2.03704,0.00403247,13750.2,57.2213
"2014-10-02 21:45:00 000",417.390,0.790469,2.03571,0.00368833,13778.7,53.6088
"2014-10-02 21:55:00 000",418.804,1.54122,2.05040,0.0116064,13650.0,78.3534
"2014-10-02 22:05:00 000",417.495,1.43892,2.02798,0.00667988,13566.0,56.8851
"2014-10-02 22:15:00 000",416.911,1.02678,2.02226,0.00455256,13581.6,59.2619
"2014-10-02 22:25:00 000",414.284,2.07236,2.01605,0.00645206,13439.7,82.2802
"2014-10-02 22:35:00 000",413.807,1.66802,2.01173,0.00537329,13412.6,77.9442
"2014-10-02 22:45:00 000",413.721,1.22148,2.00958,0.00577272,13321.8,60.8358
"2014-10-02 22:55:00 000",415.917,0.838203,2.00959,0.00332374,13479.2,63.2465
"2014-10-02 23:05:00 000",417.298,1.12010,2.01343,0.00393187,13325.3,83.8343
"2014-10-02 23:15:00 000",418.581,0.787776,2.01684,0.00322515,13085.8,101.492
"2014-10-02 23:25:00 000",418.011,0.729823,2.00428,0.00510154,13370.3,129.133
"2014-10-02 23:35:00 000",418.828,0.806808,2.01556,0.00491040,13192.4,94.8982
"2014-10-02 23:45:00 000",419.502,1.00530,2.05370,0.0551671,13005.3,178.426
"2014-10-02 23:55:00 000",417.738,0.853569,2.00400,0.0147622,13241.1,215.063
"2014-10-03 00:05:00 000",417.394,0.715424,1.99698,0.00368081,13337.1,61.4476
"2014-10-03 00:15:00 000",417.202,0.640210,1.99672,0.00464668,13236.8,64.9158
"2014-10-03 00:25:00 000",418.261,0.843146,2.00963,0.00673556,13101.4,59.6203
"2014-10-03 00:35:00 000",417.781,0.665619,2.00483,0.00679817,13170.2,58.5712
"2014-10-03 00:45:00 000",419.558,1.07064,2.02197,0.00594660,13146.8,60.7659
"2014-10-03 00:55:00 000",421.026,1.81996,2.01999,0.0144922,13034.4,99.3526
"2014-10-03 01:05:00 000",420.199,0.985316,2.01528,0.00569814,13193.6,80.0694
"2014-10-03 01:15:00 000",421.386,1.58624,2.04127,0.0275406,13196.6,68.4292
"2014-10-03 01:25:00 000",420.655,1.58805,2.03575,0.0130351,13338.7,127.007
"2014-10-03 01:35:00 000",419.833,2.45147,2.03401,0.0169746,13451.7,128.665
"2014-10-03 01:45:00 000",418.205,0.773325,2.02012,0.00395958,13483.0,65.6609
"2014-10-03 01:55:00 000",419.296,1.08273,2.03455,0.00645795,13333.3,74.3333
"2014-10-03 02:05:00 000",418.119,1.51806,2.02074,0.0131600,13423.6,90.6443
"2014-10-03 02:15:00 000",417.730,0.749057,2.00186,0.00358508,13448.2,79.4551